Location: Cactus School
(34.5700°N, 118.0931°W)
Time: 08:58:11
(UTC-08:00)

Tiros 1 - Pass Details

Date: 22 November 2019
Orbit: 630 x 664 km, 48.4° (Epoch: 13 December)

Event Time Altitude Azimuth Distance (km) Brightness Sun altitude
Rises 15:01:52 0° 295° (WNW) 2,914 10.9 17.0°
Reaches altitude 10° 15:05:09 10° 319° (NW) 2,008 9.8 16.5°
Maximum altitude 15:07:46 15° 354° (N) 1,711 9.1 16.0°
Drops below altitude 10° 15:10:24 10° 29° (NNE) 2,012 9.2 15.6°
Sets 15:13:42 0° 53° (NE) 2,925 9.9 15.1°
